Location: Agadir Mansour Mhndou
(31.2424°N, 8.7730°W)
Time: 05:17:18
(UTC+00:00)

CZ-2D R/B - Pass Details

Date: 16 October 2021
Orbit: 519 x 536 km, 97.4° (Epoch: 28 November)

Event Time Altitude Azimuth Distance (km) Brightness Sun altitude
Rises 18:40:19 0° 171° (S) 2,642 6.8 -8.9°
Reaches altitude 10° 18:42:24 10° 172° (S) 1,761 5.9 -9.4°
Maximum altitude 18:46:12 77° 258° (WSW) 547 3.4 -10.2°
Drops below altitude 10° 18:50:03 10° 345° (NNW) 1,783 6.1 -11.0°
Sets 18:52:11 0° 347° (NNW) 2,680 7.0 -11.5°
